Miscellaneous Local Product
Issued by NWS North Platte, NE

Home | Current Version | Previous Version | Graphics & Text | Print | Product List | Glossary On
Versions: 1 2 3 4 5 6 7 8 9 10 11 12 13 14 15 16 17 18 19 20 21 22 23 24 25 26 27 28 29 30 31 32 33 34 35 36 37 38 39 40 41 42 43 44 45 46 47 48 49 50
000
AXUS43 KLBF 230710
MISLBF


WESTERN AND NORTH CENTRAL NEBRASKA HOURLY WEATHER ROUNDUP
NATIONAL WEATHER SERVICE NORTH PLATTE NE
200 AM CDT TUE MAY 23 2017

NOTE: "FAIR" INDICATES FEW OR NO CLOUDS BELOW 12,000 FEET WITH NO
SIGNIFICANT WEATHER AND/OR OBSTRUCTIONS TO VISIBILITY.

NOTE: STATIONS NOT REPORTING VARIABLES SUCH AS SKY/WEATHER OR
PRESSURE ARE PROVIDED BY RAWS AND APRS NETWORKS AND ARE NOT UNDER
NATIONAL WEATHER SERVICE QUALITY CONTROL.

...OBSERVATIONS IN AND NEAR THE EASTERN PANHANDLE OF NEBRASKA...

CITY           SKY/WX    TMP DP  RH WIND       PRES   REMARKS
PINE RIDGE     CLOUDY    45  43  93 W3        30.14S
GORDON         CLOUDY    45  40  85 W8        30.12F
CHADRON        CLOUDY    45  41  86 W7        30.15F
ALLIANCE       CLOUDY    40  38  93 W9        30.15S WCI  34
SIDNEY         CLEAR     36  34  92 W9        30.18F WCI  29
CRESCENT LAKE    N/A     40  39  96 W8          N/A  WCI  34
$$

...OBSERVATIONS IN NORTHERN NEBRASKA AND FAR SOUTHERN SOUTH DAKOTA...

CITY           SKY/WX    TMP DP  RH WIND       PRES   REMARKS
WINNER         CLOUDY    50  44  80 W8        30.02F
VALENTINE      CLOUDY    47  42  83 W10       30.06F
THEDFORD       CLEAR     42  40  93 W7        30.09S
AINSWORTH      CLOUDY    46  44  90 NW7       30.05S
O`NEILL        CLOUDY    48  42  79 NW9       30.00F
ORD            MOCLDY    46  41  82 NW9       30.01F
BROKEN BOW     CLEAR     47  43  86 NW10      30.04S
VALENTINE NWR    N/A     44  42  93 NW8         N/A
HALSEY           N/A     44  42  92 W6          N/A
BUTTE            N/A     47  41  80 NW5         N/A
CHAMBERS         N/A     48  44  87 CALM        N/A
EWING            N/A     47  44  89 NW6         N/A
$$

...OBSERVATIONS IN SOUTHWEST NEBRASKA AND FAR NORTHEAST COLORADO...

CITY           SKY/WX    TMP DP  RH WIND       PRES   REMARKS
WRAY           FAIR      43  37  81 NW13      30.15F
IMPERIAL       CLEAR     44  39  82 NW15      30.13F
OGALLALA       CLEAR     43  41  91 NW9       30.13F
NORTH PLATTE   CLEAR     42  41  96 NW8       30.09F
MCCOOK         CLEAR     46  44  93 NW12      30.09F
LEXINGTON      CLEAR     47  45  93 W8        30.06S
STAPLETON        N/A     41  39  93 CALM        N/A
GOTHENBURG       N/A     45  41  86 NW7         N/A
CALLAWAY         N/A     44  42  94 NW8         N/A
$$

...OBSERVATIONS IN CENTRAL LINCOLN COUNTY AREA...

CITY           SKY/WX    TMP DP  RH WIND       PRES   REMARKS
N.P. AIRPORT   CLEAR     42  41  96 NW8       30.09F
N.P. DOWNTOWN    N/A     44  42  92 W3          N/A
N.P. SOUTHEAST   N/A     44  41  90 NW3         N/A
N.P. HILLCREST   N/A     43  41  94 NW9         N/A
$$

...SOME OBSERVATIONS FROM AROUND THE REGION...

CITY           SKY/WX    TMP DP  RH WIND       PRES   REMARKS
DENVER         MOCLDY    45  37  73 N8        30.25S
LIMON          CLOUDY    41  38  89 N16       30.20R
ASPEN          CLOUDY    38  34  85 S5        30.30S WCI  34
LARAMIE        PTCLDY    32  30  92 NW8       30.28S WCI  25
CASPER         CLEAR     38  36  92 SW9       30.26F WCI  31
CHEYENNE       LGT RAIN  38  34  85 N21G33    30.26R WCI  28
SCOTTSBLUFF    CLOUDY    40  36  86 NW7       30.19F
GRAND ISLAND   CLOUDY    51  45  79 NW7       30.02F
OMAHA          CLOUDY    53  45  74 N9        29.91F
SIOUX FALLS    PTCLDY    48  42  80 NW13      29.92S
PIERRE         CLOUDY    52  39  61 W9        29.98F
RAPID CITY     CLOUDY    47  40  76 NW9       30.12F
BISMARCK       CLOUDY    52  39  61 NW8       30.07F
KANSAS CITY    CLOUDY    56  55  97 S3        29.88F FOG
HILL CITY      PTCLDY    49  47  93 N10       30.06R
WICHITA        CLOUDY    56  56 100 W3        29.92F
DODGE CITY     LGT RAIN  52  47  83 N9        30.04S
OKLAHOMA CITY  CLOUDY    60  58  92 N7        29.92F
DALLAS         CLOUDY    67  63  87 E7        29.92S
AMARILLO       CLOUDY    55  52  89 NW5       30.08R
$$




USA.gov is the U.S. government's official web portal to all federal, state and local government web resources and services.